Regional Weather Roundup
Issued by NWS Jackson, KY

Home | Current Version | Previous Version | Text Only | Print | Product List | Glossary Off
Versions: 1 2 3 4 5 6 7 8 9 10 11 12 13 14 15 16 17 18 19 20 21 22 23 24 25 26 27 28 29 30 31 32 33 34 35 36 37 38 39 40 41 42 43 44 45 46 47 48 49 50

000
ASUS43 KJKL 291410
RWRJKL

EAST KENTUCKY HOURLY WEATHER ROUNDUP
NATIONAL WEATHER SERVICE JACKSON KY
1000 AM EDT MON JUN 29 2015

NOTE: "FAIR" INDICATES FEW OR NO CLOUDS BELOW 12,000 FEET WITH
NO SIGNIFICANT WEATHER AND/OR OBSTRUCTIONS TO VISIBILITY.

* THESE REPORTS ARE NOT UNDER NWS QUALITY CONTROL AND MAY NOT
  REPORT WEATHER SUCH AS PRECIPITATION AND FOG.

KYZ079-080-083-085-087-088-110-112-115-119-120-291500
...EASTERN KENTUCKY...

CITY           SKY/WX    TMP DP  RH WIND       PRES   REMARKS
JACKSON        MOSUNNY   68  56  65 VRB5      29.97S
LONDON         PTSUNNY   70  54  56 S9        29.96F
SOMERSET*      CLOUDY    66  55  68 S8        29.95F
MONTICELLO*    MOSUNNY   73  61  66 S9        29.97S
MIDDLESBORO*   CLOUDY    68  57  68 S3        30.01F
HARLAN APT*      N/A     66  55  68 CALM      30.02F
HAZARD APT*    SUNNY     70  55  60 S8        29.98S
BLACK MTN*       N/A     61  52  72 SW8         N/A
PIKEVILLE APT* CLOUDY    66  55  68 S6        29.99F
BIG SANDY*     PTSUNNY   67  56  67 S6        29.98F
MOREHEAD APT*  LGT RAIN  64  57  77 SE8       29.94S
$$

KYZ035-036-041-042-044-050-067-078-099-291500
...CENTRAL KENTUCKY...

CITY           SKY/WX    TMP DP  RH WIND       PRES   REMARKS
MT STERLING*   CLOUDY    68  57  68 S10       29.92S
FLEMING/MASON* CLOUDY    61  59  94 SE8       29.91F
DANVILLE*      PTSUNNY   72  59  64 SW13G21   29.91F
RICHMOND*      PTSUNNY   70  57  64 S9        29.91S
LEXINGTON      PTSUNNY   70  59  68 S15G25    29.87F
FRANKFORT      PTSUNNY   69  61  75 S7        29.85S
$$

KYZ091>093-OHZ055-061-077-WVZ005-015-034-035-042-291500
...SOUTHERN OHIO/WEST VIRGINIA...

CITY           SKY/WX    TMP DP  RH WIND       PRES   REMARKS
COVINGTON      RAIN      63  61  94 S12       29.86S FOG
COLUMBUS       LGT RAIN  63  58  83 SW3       29.93S
DAYTON         RAIN      61  59  93 SE12      29.89S FOG
WILMINGTON     RAIN      62  58  86 SE7       29.91R FOG
HUNTINGTON     CLOUDY    67  57  70 SE5       29.95S
CHARLESTON     MOSUNNY   71  56  58 SE7       29.98F
PINEVILLE*     MOSUNNY   65  58  80 MISG      30.08F
BECKLEY        MOSUNNY   68  51  54 S9        30.06S
BLUEFIELD      SUNNY     69  52  54 SW6       30.08S
$$

VAZ002-007-008-TNZ017-027-036-066-071-291500
...SOUTHWEST VIRGINIA/EAST TENNESSEE...

CITY           SKY/WX    TMP DP  RH WIND       PRES   REMARKS
WISE*          MOSUNNY   68  50  52 S8        30.07S
JONESVILLE*      N/A    N/A N/A N/A MISG        N/A
ABINGDON*      SUNNY     69  56  64 SW6       30.06F
BRISTOL        MOSUNNY   69  57  65 CALM      30.04F
KNOXVILLE      MOSUNNY   76  65  68 CALM      30.00F
OAK RIDGE      PTSUNNY   70  56  61 VRB3      30.03S
CROSSVILLE     PTSUNNY   68  57  68 VRB6      30.03S
NASHVILLE      PTSUNNY   76  67  73 SW10G22   29.93S
$$

...KEY TO REMARKS...
VSB - VISIBILITY IN MILES
WCI - WIND CHILL INDEX
HX  - HEAT INDEX

$$



USA.gov is the U.S. government's official web portal to all federal, state and local government web resources and services.